This is the latest recevied weather packets stored in our database for station/object IK1YPD-13. If no packets are shown the sender has not sent any weather packets the latest 10 day(s).
| Time | Temp. | Humidity | Pressure | Rain* | Wind** | Luminosity | Snow |
|---|---|---|---|---|---|---|---|
| 1787848649 | 30° C | 64% | 1012 hPa | - | - | - | - |
| 1787847749 | 30° C | 63% | 1012 hPa | - | - | - | - |
| 1787846849 | 30° C | 63% | 1012 hPa | - | - | - | - |
| 1787845948 | 30.56° C | 61% | 1012 hPa | - | - | - | - |
| 1787845048 | 30.56° C | 59% | 1013 hPa | - | - | - | - |
| 1787844148 | 30.56° C | 60% | 1013 hPa | - | - | - | - |
| 1787843248 | 30.56° C | 61% | 1013 hPa | - | - | - | - |
| 1787842348 | 31.11° C | 61% | 1012 hPa | - | - | - | - |
| 1787841448 | 31.11° C | 60% | 1012 hPa | - | - | - | - |
| 1787840548 | 31.11° C | 60% | 1012 hPa | - | - | - | - |
| 1787839648 | 30.56° C | 60% | 1012 hPa | - | - | - | - |
| 1787838748 | 30.56° C | 60% | 1012 hPa | - | - | - | - |
| 1787837848 | 31.11° C | 60% | 1012 hPa | - | - | - | - |
| 1787836948 | 31.67° C | 57% | 1012 hPa | - | - | - | - |
| 1787836048 | 31.11° C | 58% | 1012 hPa | - | - | - | - |
| 1787835148 | 31.11° C | 58% | 1012 hPa | - | - | - | - |
| 1787834248 | 30.56° C | 60% | 1013 hPa | - | - | - | - |
| 1787833348 | 29.44° C | 60% | 1013 hPa | - | - | - | - |
| 1787832447 | 30° C | 60% | 1013 hPa | - | - | - | - |
| 1787831547 | 30° C | 58% | 1013 hPa | - | - | - | - |
| 1787830647 | 30.56° C | 54% | 1013 hPa | - | - | - | - |
| 1787829747 | 30° C | 51% | 1013 hPa | - | - | - | - |
| 1787828847 | 30.56° C | 46% | 1013 hPa | - | - | - | - |
| 1787827947 | 30.56° C | 46% | 1013 hPa | - | - | - | - |
| 1787827047 | 30° C | 46% | 1013 hPa | - | - | - | - |
* Rain since midnight (hover to see other rain measurements)
** Current wind speed in m/s (hover to see current wind gust speed)